DECAYED

OBJECT BR, 56989 (Decayed)

Orbit data source: Space-Track

You're viewing an Uncataloged Satellite

Recently launched and/or uncataloged satellites may have evolving metadata. Metadata may include but not limited to: Owner, Maufacturer, Bus, Motor, and Mission.

OBJECT BR, 56989 was a satellite in SSO that was launched on Mon, 12 Jun 2023 UTC via an FALCON 9 launch vehicle from the Air Force Western Test Range (AFWTR). Unknown objects in Earth's orbit typically refer to objects detected orbiting the Earth but have not yet been identified or cataloged. These objects could be anything from previously untracked satellites, spent rocket stages, debris from satellite collisions, or even natural meteoroids temporarily captured by Earth's gravity. This object's orbit decayed before it could be identified.

Loading next visibility...
Identifier
56989, 2023-084BR
Orbit
Decayed
Country
Flag of TBDTBD
Related business
None
Manufacturer
BRONC/STANSI
Mission
Decayed Amateur Technology
Bus & Motor
CUBESAT 1U, Unknown motor
Mass
1 kg wet, 1 kg dry
Launch date (UTC)
2023-06-12 (2 years ago)
Launch vehicle
FALCON 9
Launch site
Air Force Western Test Range (AFWTR)
Object type
Unknown
Shape & HBR
Box, 0.1 m
Radar Cross Section
0.015 m², Small (<0.1 m²)

Expand to show TLE details & history
Last TLE update: 1 year ago

TLE from 1 year ago
0 OBJECT BR
1 56989U 23084BR  24242.31976040  .03115048  24175-1  32203-2 0  9992
2 56989  97.5000   9.7751 0014049 288.1312  71.8443 16.14955306 67855
Epoch: 2024-08-29T07:40Z
TLE epoch observation values (Epoch: 2024-08-29T07:40:27.298Z)
Latitude
-0.00009°
Longitude
-83.34745°
Altitude
233.616 km
Speed
7.768 km/s
True Right ascension
00h 39m 06s
True Declination
0° 00' 00"
Sunlit
Object was in full shadow at epoch
Visualization orbit readout
Latitude
Unknown
Longitude
Unknown
Altitude
Unknown
Speed
Unknown
Apparent Right ascension
Unknown
Apparent Declination
Unknown
Sunlit
N/A
Visualization observer readout
Local Sidereal Time
08:19:29
Azimuth
Unknown
Elevation
Unknown
Doppler factor
Unknown
Orbital elements
Apogee altitude
239.413 km
Perigee altitude
220.845 km
Semi-major axis
6,608.266 km
Eccentricity
0.0014
Inclination
97.5°
RAAN
9.7751°
Arg. of periapsis
288.1312°
True anomaly
71.99736°
Mean anomaly
71.8443°
Eccentric anomaly
71.92082°
Mean motion
4.04028 °/min
Orbital period
89.1 mins
BSTAR
0.0032203
Loading maneuver chart data...
Computing Atmospheric mass density...
Loading historical data...
Loading historical data...
Loading historical data...
Loading historical data...
Loading historical data...
Loading historical data...
Loading historical data...

Documentation

Showing up to 5 results
|